Temp
65 66 65 66 65 66 66 66 66 66 66 66 66 66 66 66 65 66 64 75 76 71 70 81 81 82 82 78 80 81 69 66 69 68 71 76 74 77 80 77 77 78 78 79 80
64 65 65 65 65 65 65 66 65 65 65 66 66 65 64 64 64 62 73 72 71 71 78 77 76 79 77 75 77 73 68 69 76 76 73 75 75 77 74 76 75 75 78 79 75
63 64 65 65 65 65 65 65 65 65 65 65 65 65 64 66 59 63 73 71 70 71 79 79 79 77 72 75 74 73 67 76 74 76 76 75 73 78 74 73 78 77 78 76 72
63 63 64 64 64 65 65 64 64 65 65 65 65 64 63 64 50 70 68 70 69 76 74 74 74 70 68 67 75 66 73 73 74 72 72 72 77 73 75 78 80 83 84 78 75
62 62 63 64 64 64 65 64 64 64 64 65 64 63 61 55 59 68 66 67 73 72 72 68 68 69 66 70 70 66 71 72 74 71 72 73 71 73 75 81 79 79 78 78 77
61 61 62 63 63 64 64 64 64 64 64 65 64 62 61 51 72 70 70 65 69 71 71 73 69 72 68 70 66 72 71 71 72 72 72 68 72 71 76 82 80 77 77 79 78
61 61 61 62 63 63 64 64 64 64 64 64 64 66 57 60 74 73 69 69 66 66 65 69 70 66 71 65 70 68 63 67 69 70 69 70 65 67 77 77 77 77 79 80 79
60 60 61 61 62 63 63 63 63 63 64 64 64 61 53 73 75 69 71 65 67 64 62 62 62 65 67 68 64 61 63 57 68 70 69 67 59 73 79 78 75 78 80 79 79
59 59 60 61 61 62 62 63 62 63 64 65 61 56 50 65 63 68 70 62 64 64 62 61 58 53 61 58 56 59 53 56 62 69 67 64 61 72 79 76 74 77 79 80 81
58 58 60 60 61 61 62 62 61 62 64 67 57 50 53 54 64 64 68 66 59 57 55 55 52 48 48 51 45 51 52 57 59 64 64 62 62 70 73 71 72 75 78 79 80
57 58 59 60 61 61 61 59 50 49 55 53 54 54 52 58 64 60 63 60 58 56 48 52 46 41 46 50 46 51 47 53 61 61 57 59 62 66 72 73 73 73 75 77 79
57 57 59 59 60 61 62 54 56 62 45 58 60 58 61 61 51 56 63 54 51 47 51 46 42 53 53 48 45 44 44 46 55 57 55 58 58 64 68 70 72 72 74 76 78
57 57 58 59 60 58 57 59 68 67 48 52 57 55 54 55 52 51 57 57 50 47 48 47 52 57 53 47 43 43 42 42 44 52 56 54 53 58 66 69 72 73 75 76 77
56 54 56 59 53 55 54 65 67 66 39 40 44 51 54 59 47 57 60 57 51 47 52 50 59 54 52 49 50 40 49 47 44 44 41 53 40 56 62 67 70 72 72 74 77
55 54 54 58 55 50 60 64 64 54 25 46 48 59 57 50 56 51 57 50 49 52 53 48 51 50 49 51 52 49 55 51 49 43 44 48 42 53 61 59 65 69 72 75 76
54 53 55 54 53 56 62 60 52 33 26 36 45 44 44 49 48 51 50 51 52 52 54 51 57 56 55 57 55 52 48 48 50 46 35 46 48 51 58 62 67 71 74 75 77
53 54 53 56 48 55 58 50 33 27 36 33 38 43 43 42 45 46 44 42 38 36 38 43 46 51 53 50 54 49 43 33 32 32 36 52 48 53 63 67 68 69 71 75 75
52 53 53 56 54 53 50 39 28 32 33 42 43 44 40 46 44 45 44 37 41 39 37 35 34 46 53 51 46 44 46 38 30 32 41 44 41 53 65 69 70 70 71 72 71
53 51 50 51 54 52 42 30 32 35 42 40 43 38 36 42 45 42 42 43 42 45 36 34 35 51 53 56 55 43 38 50 40 33 37 47 52 60 62 63 64 64 66 68 71
49 46 47 53 52 48 35 33 33 47 48 46 36 42 34 36 37 41 41 46 42 47 51 44 35 45 49 50 53 51 54 37 37 30 31 44 47 50 58 60 63 63 64 66 66
47 39 48 53 48 42 31 32 37 49 51 45 44 41 44 39 43 42 44 50 51 48 50 48 45 38 46 41 39 41 40 43 41 37 35 36 46 60 63 65 62 62 63 64 62
44 32 49 50 34 35 33 34 45 48 53 47 51 48 44 46 42 43 46 50 57 53 43 48 41 34 40 50 54 51 46 42 36 33 38 37 42 63 65 66 60 63 64 63 62
34 38 48 46 31 32 35 40 47 46 46 47 45 49 51 45 39 47 47 51 53 53 48 46 37 31 34 42 48 46 49 49 47 41 34 32 43 63 65 65 65 64 66 66 65
38 32 37 38 34 35 34 38 40 49 44 47 46 50 47 41 40 42 46 46 50 53 48 50 44 39 35 43 48 42 46 50 48 38 39 41 46 56 60 62 65 66 65 64 64
38 32 33 30 31 40 43 42 38 36 44 47 45 46 42 37 37 37 44 43 47 47 51 50 37 43 45 47 48 46 46 47 45 47 41 46 48 53 58 60 61 63 63 62 62
36 35 35 33 36 41 41 38 39 39 42 40 42 46 46 39 41 37 44 44 43 46 47 49 34 42 35 45 45 40 44 44 45 47 47 48 47 59 60 61 59 61 62 62 62
42 46 40 36 36 38 39 41 40 43 45 49 48 45 44 46 50 52 53 52 50 46 45 43 37 32 31 39 38 31 39 44 46 48 46 39 47 55 54 57 59 60 61 61 62
MSLP
1012.65 1012.99 1013.38 1013.75 1014.05 1014.37 1014.66 1014.91 1015.14 1015.38 1015.60 1015.77 1016.00 1016.25 1016.63 1016.96 1017.20 1017.27 1016.47 1015.96 1016.05 1016.29 1016.42 1015.77 1015.31 1015.00 1014.55 1014.03 1013.72 1013.32 1012.14 1010.88 1010.62 1010.91 1010.90 1011.85 1011.88 1012.44 1012.62 1012.59 1013.07 1013.41 1013.60 1014.40 1015.35
1012.17 1012.46 1012.82 1013.19 1013.59 1013.96 1014.29 1014.60 1014.83 1015.12 1015.44 1015.61 1015.79 1016.17 1016.51 1016.90 1017.17 1016.47 1015.94 1015.88 1016.30 1016.60 1016.15 1015.56 1014.95 1014.74 1014.23 1013.85 1013.70 1013.16 1012.06 1011.05 1011.02 1011.26 1011.46 1011.74 1011.98 1012.04 1012.63 1012.42 1012.75 1013.30 1014.01 1014.77 1015.90
1011.44 1011.84 1012.23 1012.70 1013.09 1013.54 1013.88 1014.29 1014.60 1014.88 1015.17 1015.42 1015.64 1015.99 1016.51 1016.79 1016.95 1015.08 1015.63 1015.94 1016.47 1016.76 1016.35 1015.81 1015.40 1014.85 1014.20 1014.08 1013.72 1013.13 1012.35 1011.52 1011.87 1012.19 1012.40 1012.07 1012.12 1012.29 1012.26 1011.87 1011.83 1012.25 1013.09 1014.52 1015.67
1010.78 1011.16 1011.68 1012.12 1012.61 1013.11 1013.44 1013.87 1014.36 1014.64 1014.82 1015.07 1015.46 1015.98 1016.47 1017.05 1016.12 1014.71 1015.37 1015.77 1016.32 1016.56 1016.48 1016.12 1015.61 1015.06 1014.39 1013.96 1013.74 1013.68 1013.03 1012.90 1012.49 1013.09 1012.86 1012.60 1012.21 1012.19 1012.20 1011.67 1012.02 1011.95 1012.27 1013.87 1014.79
1010.17 1010.55 1011.01 1011.53 1012.03 1012.50 1013.05 1013.48 1013.86 1014.32 1014.60 1014.85 1015.25 1016.02 1016.61 1016.37 1014.82 1015.44 1015.52 1015.88 1016.36 1016.95 1016.35 1016.45 1015.78 1015.20 1014.12 1013.90 1014.09 1013.99 1013.24 1013.52 1013.34 1013.62 1013.38 1013.20 1012.80 1012.26 1011.73 1011.83 1012.41 1012.70 1013.01 1013.39 1014.03
1009.46 1009.90 1010.36 1010.93 1011.40 1011.94 1012.56 1013.04 1013.57 1013.99 1014.35 1014.70 1015.13 1015.80 1016.29 1015.27 1014.47 1015.11 1015.41 1016.00 1016.66 1016.77 1016.36 1016.35 1016.10 1015.55 1014.65 1014.11 1014.28 1013.52 1013.54 1013.64 1013.59 1013.56 1013.63 1013.34 1012.65 1012.59 1011.56 1011.57 1012.01 1012.53 1012.81 1013.00 1013.43
1008.81 1009.23 1009.67 1010.19 1010.82 1011.32 1012.06 1012.63 1013.18 1013.69 1014.11 1014.40 1014.90 1015.56 1015.45 1013.35 1014.08 1014.72 1015.40 1016.10 1016.57 1016.40 1016.76 1017.26 1017.19 1016.42 1015.24 1014.93 1014.71 1014.30 1014.30 1013.91 1013.60 1013.53 1013.40 1013.56 1012.48 1011.74 1011.80 1011.63 1011.86 1012.00 1012.20 1012.34 1012.73
1008.09 1008.58 1008.95 1009.52 1010.14 1010.84 1011.56 1012.19 1012.91 1013.51 1014.01 1014.36 1014.89 1015.61 1014.30 1013.71 1014.38 1014.99 1015.24 1016.14 1016.67 1017.13 1017.32 1018.32 1018.50 1017.52 1016.32 1015.58 1015.29 1014.90 1014.72 1013.64 1013.00 1013.10 1013.43 1013.69 1011.61 1010.94 1011.16 1011.12 1011.30 1011.40 1011.44 1011.79 1011.98
1007.29 1007.75 1008.44 1008.75 1009.52 1010.30 1011.14 1011.97 1012.71 1013.40 1013.88 1014.53 1015.40 1015.05 1014.37 1014.46 1014.46 1014.90 1014.93 1015.33 1016.66 1017.45 1018.02 1018.25 1019.37 1019.22 1017.35 1016.02 1015.64 1015.14 1014.04 1013.61 1012.97 1013.16 1013.24 1013.33 1011.73 1011.07 1010.75 1010.74 1010.87 1010.93 1010.73 1010.77 1011.23
1006.60 1007.03 1007.66 1008.16 1008.83 1009.68 1010.78 1011.81 1012.82 1013.54 1014.16 1014.45 1015.32 1015.67 1014.24 1014.00 1014.00 1014.75 1015.15 1015.48 1016.50 1017.59 1018.34 1018.49 1019.13 1019.32 1018.58 1016.76 1015.31 1015.14 1014.94 1014.20 1013.13 1013.34 1013.46 1013.05 1012.11 1011.35 1011.10 1011.21 1010.86 1010.65 1010.33 1010.15 1010.25
1005.82 1006.27 1006.88 1007.49 1008.17 1009.16 1010.76 1012.08 1013.21 1013.59 1013.02 1011.59 1012.12 1013.12 1013.73 1014.23 1013.84 1014.29 1014.88 1015.53 1016.36 1017.12 1017.40 1017.58 1018.18 1018.15 1018.03 1017.70 1017.88 1017.09 1016.33 1015.20 1014.21 1014.46 1014.48 1013.36 1012.36 1011.31 1010.94 1010.57 1010.23 1010.24 1010.00 1009.77 1009.76
1004.95 1005.49 1006.06 1006.80 1007.62 1008.60 1009.55 1009.68 1009.30 1009.64 1012.01 1012.36 1012.53 1013.29 1013.48 1013.79 1014.14 1013.76 1014.45 1015.00 1015.61 1015.92 1016.56 1017.24 1016.42 1016.59 1017.88 1017.68 1018.61 1018.57 1017.96 1017.00 1015.93 1015.83 1015.46 1014.12 1012.61 1011.69 1010.76 1010.22 1009.99 1009.73 1009.40 1009.28 1009.22
1003.94 1004.54 1005.26 1006.07 1007.04 1007.87 1008.02 1007.85 1009.68 1009.85 1011.15 1012.16 1012.60 1012.97 1013.50 1014.12 1013.17 1013.49 1013.90 1014.31 1015.02 1015.50 1015.47 1014.61 1014.46 1015.88 1016.16 1017.20 1018.08 1018.76 1018.38 1018.00 1017.91 1016.83 1015.75 1014.81 1012.48 1011.52 1009.76 1009.72 1009.28 1008.97 1008.91 1008.88 1008.72
1003.00 1003.76 1004.83 1005.31 1006.72 1005.97 1006.96 1008.20 1009.10 1009.67 1010.78 1011.64 1012.73 1012.65 1013.28 1013.06 1013.38 1013.31 1013.38 1013.98 1014.52 1014.29 1014.47 1014.31 1014.38 1014.89 1015.35 1016.01 1016.85 1017.49 1017.72 1018.44 1018.46 1017.57 1015.88 1015.47 1012.44 1010.37 1009.17 1008.01 1007.77 1007.96 1008.10 1008.07 1007.83
1002.11 1002.97 1004.02 1004.22 1004.32 1004.60 1004.56 1007.30 1008.88 1010.02 1009.76 1010.39 1011.78 1012.47 1012.47 1012.88 1012.26 1013.34 1013.10 1014.42 1013.51 1013.12 1013.80 1012.80 1013.16 1013.88 1014.25 1014.44 1016.05 1015.83 1016.74 1017.44 1017.86 1017.53 1016.84 1015.16 1013.75 1009.65 1008.85 1007.66 1007.43 1007.45 1006.95 1006.89 1007.05
1001.20 1002.26 1003.38 1003.09 1004.12 1004.52 1004.92 1006.83 1008.93 1010.35 1008.68 1009.76 1010.52 1011.81 1012.47 1012.54 1012.95 1013.10 1013.84 1014.63 1014.12 1013.56 1013.68 1013.42 1013.46 1013.69 1013.35 1014.29 1015.06 1016.15 1016.94 1017.48 1017.18 1017.03 1015.69 1013.78 1012.45 1008.81 1007.58 1006.75 1006.29 1006.12 1006.15 1006.43 1006.68
1000.61 1001.58 1001.46 1001.77 1002.91 1004.62 1005.12 1005.61 1007.99 1007.28 1009.08 1009.54 1009.35 1010.18 1011.14 1011.86 1012.42 1012.41 1013.16 1014.09 1014.57 1014.52 1013.52 1013.97 1013.68 1013.81 1014.01 1014.26 1014.93 1015.77 1016.62 1016.76 1016.72 1016.28 1013.54 1012.12 1011.14 1008.31 1007.14 1006.42 1006.38 1006.52 1006.55 1006.62 1007.06
1000.57 1000.91 1001.95 1002.42 1003.05 1004.29 1004.16 1005.63 1005.36 1006.21 1007.94 1008.88 1008.53 1009.77 1010.69 1011.34 1012.00 1012.41 1012.64 1013.58 1014.08 1014.33 1013.24 1013.00 1013.69 1013.23 1013.46 1013.26 1013.79 1014.77 1015.01 1014.94 1015.27 1014.82 1013.28 1012.81 1009.80 1007.25 1006.72 1006.32 1006.46 1006.61 1006.96 1007.32 1007.76
1000.61 1001.07 1001.42 1002.30 1003.36 1003.89 1004.48 1004.28 1004.32 1005.16 1005.79 1007.17 1008.19 1008.82 1010.23 1010.66 1011.37 1011.97 1012.10 1012.42 1013.24 1013.15 1012.90 1012.91 1013.34 1013.08 1013.22 1013.45 1013.44 1014.36 1014.28 1014.77 1015.13 1015.48 1014.09 1011.43 1009.13 1007.61 1006.49 1006.52 1006.77 1006.95 1007.36 1007.79 1007.98
999.83 1000.28 1001.05 1002.11 1003.34 1003.70 1004.59 1004.37 1004.60 1004.12 1004.70 1006.17 1005.91 1007.27 1008.08 1009.58 1010.95 1011.06 1011.39 1011.19 1012.01 1012.53 1012.76 1012.97 1013.31 1013.58 1013.92 1014.01 1013.88 1013.66 1014.14 1015.35 1015.70 1015.15 1013.30 1010.35 1008.61 1006.62 1006.06 1006.24 1006.59 1006.89 1007.69 1008.10 1008.47
999.69 1000.22 1001.08 1002.15 1003.38 1003.27 1003.83 1004.21 1004.45 1004.01 1004.02 1005.11 1005.01 1005.94 1006.94 1008.08 1008.84 1009.24 1009.28 1010.16 1010.92 1011.88 1012.72 1012.80 1012.67 1014.11 1013.84 1013.53 1013.73 1014.15 1014.15 1014.76 1015.10 1015.00 1013.13 1010.63 1007.84 1006.23 1005.47 1005.81 1006.74 1007.41 1008.07 1008.65 1008.96
999.50 1000.28 1000.90 1001.98 1003.55 1003.11 1003.80 1003.94 1004.11 1003.62 1004.28 1004.79 1004.98 1005.47 1005.93 1007.11 1008.34 1009.01 1008.72 1009.51 1009.98 1010.91 1011.80 1012.73 1013.36 1013.38 1013.13 1013.22 1012.84 1012.97 1013.23 1014.12 1014.36 1014.51 1013.48 1011.74 1008.17 1006.41 1006.27 1006.47 1007.21 1007.34 1008.08 1008.98 1008.92
999.33 1000.32 1001.34 1001.62 1002.36 1002.48 1003.70 1003.39 1003.12 1003.62 1004.07 1004.51 1005.02 1005.49 1006.04 1007.09 1008.70 1008.61 1009.41 1010.03 1010.49 1010.47 1010.69 1012.02 1013.28 1013.40 1013.28 1013.52 1013.04 1012.50 1012.61 1013.12 1013.68 1013.53 1013.09 1011.98 1007.64 1006.72 1006.17 1006.63 1007.04 1007.15 1007.59 1008.35 1008.61
999.14 999.86 1001.46 1002.40 1002.85 1002.52 1002.44 1003.07 1003.60 1004.46 1004.79 1005.09 1005.08 1005.54 1006.42 1007.82 1009.14 1008.89 1009.59 1010.74 1010.93 1010.79 1011.13 1011.86 1012.26 1012.18 1011.50 1010.96 1011.55 1012.21 1012.10 1012.29 1012.77 1012.91 1011.25 1010.78 1007.42 1006.81 1007.09 1007.07 1006.95 1007.31 1007.81 1008.29 1008.26
998.69 999.91 1001.14 1002.13 1003.23 1002.28 1001.48 1002.12 1003.07 1004.34 1005.03 1005.12 1005.71 1005.78 1006.85 1008.29 1009.56 1009.74 1010.20 1011.14 1011.52 1011.48 1011.56 1011.99 1012.04 1012.27 1011.92 1011.81 1011.89 1011.88 1011.77 1012.20 1012.09 1011.65 1011.22 1009.60 1008.33 1004.72 1007.98 1007.77 1007.76 1008.12 1008.34 1008.50 1008.80
998.97 999.47 1000.87 1002.21 1002.59 1002.13 1001.97 1003.33 1002.97 1004.04 1004.36 1005.03 1005.42 1006.90 1007.44 1007.96 1008.75 1009.33 1009.86 1010.57 1010.73 1011.94 1011.86 1012.30 1012.82 1012.85 1012.84 1012.62 1012.54 1012.66 1012.50 1012.24 1011.74 1011.17 1010.87 1009.72 1008.60 1004.23 1008.27 1008.03 1008.04 1008.28 1008.46 1008.37 1008.64
998.79 998.84 999.43 1002.14 1002.12 1001.16 1001.66 1002.57 1003.09 1003.70 1005.07 1005.30 1006.09 1007.26 1008.06 1008.75 1009.24 1009.60 1010.26 1010.66 1010.83 1011.26 1011.76 1012.61 1013.27 1014.06 1013.85 1013.62 1013.47 1013.06 1011.74 1011.58 1011.50 1010.96 1010.55 1010.06 1008.11 1007.34 1008.40 1008.21 1007.93 1008.01 1008.32 1008.33 1008.20
Wind_Speed
22 21 21 20 18 17 16 14 14 14 13 11 11 10 9 9 6 5 13 4 2 5 2 5 7 6 6 3 3 4 8 10 10 7 3 4 7 3 4 3 6 6 2 6 16
24 22 21 21 19 18 16 15 13 14 13 12 11 9 9 10 5 12 4 3 1 4 6 7 9 7 8 4 4 7 9 12 3 5 4 5 7 5 6 9 9 9 7 7 14
24 24 23 22 21 20 17 15 12 13 15 13 11 9 11 10 4 10 16 5 5 6 8 7 10 9 11 6 7 6 13 7 4 4 5 5 5 5 9 9 10 11 13 12 14
24 25 24 23 22 21 19 17 14 12 15 14 12 10 12 5 10 0 2 12 6 6 6 8 8 11 10 11 10 10 11 7 2 1 2 8 6 7 13 10 6 4 4 14 15
23 25 25 23 23 22 20 18 15 14 12 14 14 13 7 9 14 3 10 9 7 9 12 11 12 14 15 11 8 14 13 7 7 5 6 4 9 10 10 13 4 2 5 12 13
24 24 25 24 23 23 20 19 16 14 13 13 14 18 8 19 7 12 14 11 7 13 13 11 8 14 10 13 14 5 14 11 7 10 7 8 11 4 9 12 11 8 10 11 14
23 25 25 26 25 23 21 20 17 14 12 13 16 14 11 20 6 15 15 10 6 8 7 2 7 7 8 9 6 6 9 11 13 14 12 5 15 19 13 4 11 11 12 11 12
24 25 26 26 26 24 22 19 17 14 11 11 15 12 8 14 9 15 15 11 9 5 8 5 11 9 10 4 6 10 12 17 15 14 7 8 19 17 18 15 13 13 12 12 13
25 25 27 27 27 25 23 18 15 13 10 9 10 11 6 4 20 18 19 17 15 10 5 6 3 3 6 12 10 12 17 21 17 10 11 13 13 17 16 13 14 15 16 15 14
25 25 27 27 28 25 22 17 13 9 9 6 2 6 7 12 18 15 15 20 8 16 7 5 5 5 6 6 15 14 17 17 14 11 13 17 17 18 9 6 13 16 17 18 16
24 23 27 30 29 27 20 11 8 7 18 24 10 6 4 1 11 16 16 18 10 11 10 10 7 13 20 9 7 9 8 19 15 3 6 15 17 20 18 20 20 19 18 16 15
29 24 27 30 31 30 21 19 30 5 11 24 15 15 7 12 9 15 19 14 10 16 14 9 19 18 18 11 2 6 6 11 6 1 4 12 19 20 20 21 20 21 20 21 20
29 23 29 29 31 26 25 32 21 20 7 20 19 10 6 6 9 19 21 16 12 18 19 16 8 19 19 14 11 10 11 7 8 5 10 11 23 22 25 23 23 23 21 21 21
29 27 26 31 28 23 28 27 21 15 5 10 12 9 9 11 5 7 21 14 8 22 24 17 19 14 16 24 18 18 16 10 10 5 3 1 11 16 17 17 16 15 17 21 22
32 28 31 32 16 27 31 23 16 2 12 20 19 7 11 13 10 12 7 7 17 19 19 14 18 19 19 20 21 13 16 19 16 8 10 14 9 7 10 15 17 17 21 21 20
33 34 35 22 10 16 22 20 11 8 13 8 16 16 11 19 8 8 6 2 4 17 19 7 7 16 20 16 20 8 7 12 12 8 8 16 15 11 11 13 13 17 15 15 14
25 31 16 12 12 15 20 15 14 13 6 11 17 22 23 12 18 8 15 7 6 9 17 7 12 4 7 16 16 13 15 4 6 6 8 4 10 14 12 10 13 11 6 4 5
27 24 17 7 12 15 15 14 12 13 11 9 17 23 22 19 14 15 12 7 13 3 4 9 10 15 15 14 9 14 13 5 5 6 4 1 11 5 11 14 16 15 11 8 8
29 13 11 7 17 13 16 15 7 18 15 17 24 24 8 15 9 10 17 15 12 10 3 4 2 11 11 10 15 9 9 5 3 2 2 8 12 14 15 12 9 7 7 5 5
12 11 8 13 14 18 11 12 5 16 19 24 17 21 14 23 13 20 15 11 9 14 9 3 4 6 10 4 6 7 11 4 2 5 7 9 13 11 4 5 4 2 4 4 7
10 7 10 15 6 13 12 4 6 20 23 21 19 16 26 20 19 22 19 12 20 18 15 4 2 4 9 10 10 4 6 2 4 3 5 5 8 6 5 7 8 8 4 5 5
9 5 13 12 7 4 11 10 14 25 17 4 13 13 18 29 20 19 19 17 19 21 15 8 2 5 12 2 5 17 10 7 6 6 6 4 11 5 7 1 4 6 7 2 3
7 3 7 7 4 7 11 16 19 25 17 13 9 8 14 16 12 18 14 9 6 15 15 9 4 4 8 2 4 10 17 15 15 5 7 4 9 7 8 1 5 7 9 9 8
6 6 5 4 3 11 18 20 24 13 10 7 14 14 18 14 7 11 14 4 5 12 2 13 8 8 8 5 7 13 13 19 18 11 19 16 31 24 13 14 16 15 13 15 14
3 2 3 8 8 13 17 26 27 12 6 10 8 17 12 10 5 5 11 7 6 4 9 6 6 13 17 17 6 8 18 19 21 24 21 22 27 32 11 11 12 14 13 14 14
4 5 3 4 18 19 19 19 23 12 9 8 16 20 9 14 9 14 17 12 9 6 13 8 1 7 8 12 8 9 6 11 17 20 18 25 26 37 15 16 14 9 14 14 14
2 2 6 10 15 13 12 22 19 15 9 13 22 16 11 16 9 11 7 11 4 12 15 10 5 3 4 6 7 9 23 22 20 18 19 19 27 23 18 17 16 17 17 18 20
Wind_Direction
225 225 226 225 224 224 226 230 222 214 213 219 219 221 206 187 149 177 224 224 243 134 288 270 222 249 253 250 262 275 254 250 249 241 224 142 212 152 8 232 210 175 327 90 128
230 224 222 224 225 221 223 229 231 213 212 209 215 218 207 174 189 226 200 25 183 217 247 248 232 213 232 233 232 243 244 254 342 294 259 171 223 194 223 212 216 189 149 142 139
228 226 221 221 221 220 218 224 227 225 213 204 201 192 195 155 238 236 206 171 197 241 261 279 285 236 234 245 212 218 252 262 233 278 294 252 223 225 228 239 243 209 178 173 156
227 226 222 216 215 218 214 213 217 227 224 207 191 167 167 178 235 184 138 156 143 243 236 237 240 225 228 218 214 251 250 275 293 240 259 252 266 219 237 244 30 248 171 174 179
228 226 221 216 211 212 214 212 208 215 224 216 192 143 155 216 226 124 110 113 165 219 214 221 227 240 228 228 212 238 257 258 249 232 257 293 254 249 246 249 167 193 193 187 196
229 225 220 215 209 209 208 209 204 208 214 223 193 150 206 222 154 144 134 122 189 202 216 224 235 238 275 240 218 257 237 239 240 252 252 249 253 219 228 235 222 200 213 209 206
234 229 220 211 208 204 205 204 202 201 211 220 194 186 218 227 179 172 159 163 160 143 189 360 305 248 224 219 233 202 231 228 235 237 242 257 250 237 248 181 235 221 232 218 216
231 231 223 212 205 200 201 199 196 193 204 220 195 196 231 213 178 172 165 155 150 106 113 49 347 281 246 102 188 208 230 248 227 217 222 216 260 244 223 230 235 237 229 227 221
232 226 226 211 202 196 196 192 189 186 196 210 196 215 203 127 191 180 171 158 153 142 100 101 350 2 255 190 199 208 226 227 242 197 232 219 260 253 250 224 247 248 251 239 234
231 225 222 213 200 191 186 175 179 175 204 199 251 213 149 207 190 187 181 151 142 142 143 130 140 182 283 235 214 217 229 254 245 204 218 245 244 259 241 254 258 252 254 254 242
227 226 220 211 197 187 169 156 167 205 202 196 189 216 160 112 182 176 170 165 140 174 175 167 166 197 204 218 341 309 329 262 241 3 282 253 257 260 258 260 249 249 257 254 250
223 226 220 207 198 184 174 188 193 155 191 211 207 216 194 187 199 189 167 173 173 197 179 167 216 190 184 150 111 339 288 284 281 151 284 273 273 275 269 260 258 261 255 254 252
218 216 217 200 194 182 184 195 178 155 160 201 216 236 187 180 203 186 178 189 196 204 196 218 192 211 181 176 178 227 254 240 269 284 259 289 272 257 258 251 250 251 251 256 255
215 208 226 195 195 181 193 181 173 193 162 169 198 212 186 207 246 198 191 191 188 208 200 225 221 192 200 211 199 214 184 201 227 252 254 191 290 268 277 278 236 246 247 250 245
201 205 235 187 190 184 179 167 146 80 204 167 176 139 174 191 159 206 182 161 197 191 202 203 200 203 214 214 196 243 184 201 217 225 282 248 250 269 245 258 256 258 247 241 242
205 188 211 189 170 192 169 147 110 173 204 164 142 172 155 204 192 142 155 182 305 200 207 203 220 199 215 211 193 117 141 205 225 225 243 237 239 268 258 265 265 254 253 254 255
210 192 192 168 181 165 166 150 172 203 123 162 170 166 184 179 202 195 186 177 160 190 186 177 179 127 183 206 194 167 165 172 187 206 248 155 225 245 271 261 260 275 327 356 349
209 188 206 187 149 157 160 165 192 123 151 179 164 165 178 166 202 198 199 161 196 196 154 153 178 174 180 196 173 197 176 175 214 193 263 142 240 242 253 267 264 267 282 290 302
187 182 184 150 156 163 167 189 165 149 144 159 162 158 151 186 202 165 213 206 191 173 178 107 168 175 177 198 170 170 212 281 313 124 267 233 254 263 254 251 264 272 273 281 15
181 164 173 148 177 163 173 175 129 155 147 155 157 183 161 169 175 190 187 184 168 195 201 228 115 222 202 67 260 221 153 128 181 212 233 248 252 251 263 217 226 263 354 20 6
175 151 165 151 175 175 184 132 145 153 147 163 160 174 194 173 186 189 187 176 196 179 194 239 223 169 159 201 175 137 172 170 134 226 269 272 246 9 218 259 81 71 2 8 21
163 160 154 139 163 169 164 142 156 151 153 117 161 178 183 185 192 189 195 206 195 170 183 184 154 169 192 117 239 209 185 156 188 194 245 318 257 307 296 172 79 19 36 37 230
125 127 142 140 151 139 146 138 156 150 139 141 151 176 175 170 186 194 196 110 211 198 193 147 182 143 169 204 206 217 213 213 231 271 198 228 260 80 47 15 359 295 336 335 5
156 149 112 154 41 145 136 135 143 134 88 97 125 137 140 151 28 190 186 113 189 210 60 166 212 221 240 204 173 208 224 220 224 232 250 242 270 254 270 289 300 314 342 338 332
14 73 116 156 180 173 139 149 145 140 128 139 134 151 140 148 115 162 157 131 157 148 168 206 227 239 247 266 272 281 224 229 233 235 240 252 258 266 272 298 333 322 315 318 311
140 130 87 121 146 172 126 159 146 116 137 123 142 155 142 154 170 169 175 179 171 166 185 194 247 235 258 261 239 241 232 235 243 253 268 260 273 271 311 300 283 284 290 295 302
123 147 112 161 172 139 152 158 139 122 59 134 137 133 120 130 107 141 150 175 194 182 183 173 153 133 237 191 244 257 237 239 244 238 232 245 253 284 282 279 287 300 295 289 282